When you browse on this site, cookies collect data to enhance your experience and personalize the content and advertising you see.
Visit our Privacy Policy to learn more. By continuing to use the site, you agree to this use of cookies and data.
  • en Suisse
  • Liste des pays
  • À 7 jours
  • Température de l'eau
  • Carte météo
  • Widgets météo
  • user-avatar
    Se connecter

    Météo par heure à Shondrovo

    Ce jour, 5 Juin, Vendredi

    Heure Température Précipitation Vent Pression Humidité
    00:00 +10°C° 0 mm 3 m/s 736 mmHg 94%
    01:00 +10°C° 0 mm 4 m/s 736 mmHg 94%
    02:00 +10°C° 0 mm 4 m/s 736 mmHg 94%
    03:00 +10°C° 0 mm 4 m/s 737 mmHg 94%
    04:00 +10°C° 0 mm 4 m/s 736 mmHg 93%
    05:00 +10°C° 0 mm 5 m/s 736 mmHg 92%
    06:00 +10°C° 0 mm 5 m/s 736 mmHg 91%
    07:00 +13°C° 0.2 mm 6 m/s 736 mmHg 87%
    08:00 +14°C° 0.2 mm 6 m/s 737 mmHg 84%
    09:00 +15°C° 0.2 mm 7 m/s 737 mmHg 81%
    10:00 +16°C° 0.8 mm 7 m/s 737 mmHg 80%
    11:00 +16°C° 0.8 mm 8 m/s 737 mmHg 78%
    12:00 +17°C° 0.8 mm 8 m/s 737 mmHg 77%
    13:00 +15°C° 1.6 mm 8 m/s 737 mmHg 81%
    14:00 +14°C° 1.6 mm 7 m/s 736 mmHg 85%
    15:00 +12°C° 1.6 mm 7 m/s 736 mmHg 90%
    16:00 +13°C° 0.9 mm 6 m/s 736 mmHg 90%
    17:00 +13°C° 0.9 mm 6 m/s 736 mmHg 91%
    18:00 +13°C° 0.9 mm 6 m/s 736 mmHg 91%
    19:00 +12°C° 0.1 mm 5 m/s 737 mmHg 93%
    20:00 +12°C° 0.1 mm 4 m/s 737 mmHg 94%
    21:00 +12°C° 0.1 mm 3 m/s 737 mmHg 95%
    22:00 +11°C° 0 mm 3 m/s 737 mmHg 96%
    23:00 +11°C° 0 mm 3 m/s 737 mmHg 96%

    Demain, 6 Juin, Samedi

    Heure Température Précipitation Vent Pression Humidité
    00:00 +11°C° 0 mm 3 m/s 737 mmHg 97%
    01:00 +11°C° 0 mm 3 m/s 738 mmHg 97%
    02:00 +12°C° 0 mm 2 m/s 738 mmHg 98%
    03:00 +12°C° 0 mm 2 m/s 738 mmHg 98%
    04:00 +12°C° 0 mm 2 m/s 738 mmHg 98%
    05:00 +13°C° 0 mm 2 m/s 738 mmHg 98%
    06:00 +14°C° 0 mm 2 m/s 739 mmHg 98%
    07:00 +14°C° 0 mm 3 m/s 739 mmHg 96%
    08:00 +16°C° 0 mm 3 m/s 739 mmHg 94%
    09:00 +17°C° 0 mm 3 m/s 740 mmHg 91%
    10:00 +19°C° 0.1 mm 4 m/s 740 mmHg 87%
    11:00 +20°C° 0.1 mm 4 m/s 740 mmHg 82%
    12:00 +22°C° 0.1 mm 4 m/s 740 mmHg 78%
    13:00 +22°C° 0.8 mm 4 m/s 740 mmHg 76%
    14:00 +23°C° 0.8 mm 4 m/s 740 mmHg 75%
    15:00 +25°C° 0.8 mm 5 m/s 740 mmHg 74%
    16:00 +23°C° 0.4 mm 4 m/s 740 mmHg 77%
    17:00 +23°C° 0.4 mm 4 m/s 740 mmHg 80%
    18:00 +23°C° 0.4 mm 4 m/s 740 mmHg 83%
    19:00 +22°C° 0.6 mm 4 m/s 740 mmHg 85%
    20:00 +20°C° 0.6 mm 4 m/s 740 mmHg 86%
    21:00 +19°C° 0.6 mm 4 m/s 741 mmHg 88%
    22:00 +19°C° 0 mm 3 m/s 741 mmHg 89%
    23:00 +18°C° 0 mm 3 m/s 741 mmHg 91%

    Après-demain, 7 Juin, Dimanche

    Heure Température Précipitation Vent Pression Humidité
    00:00 +18°C° 0 mm 3 m/s 741 mmHg 92%
    01:00 +17°C° 0 mm 2 m/s 742 mmHg 93%
    02:00 +17°C° 0 mm 2 m/s 742 mmHg 93%
    03:00 +17°C° 0 mm 2 m/s 743 mmHg 94%
    04:00 +17°C° 0 mm 2 m/s 743 mmHg 93%
    05:00 +18°C° 0 mm 1 m/s 743 mmHg 92%
    06:00 +19°C° 0 mm 1 m/s 743 mmHg 91%
    07:00 +20°C° 0 mm 1 m/s 744 mmHg 87%
    08:00 +21°C° 0 mm 1 m/s 744 mmHg 83%
    09:00 +23°C° 0 mm 1 m/s 744 mmHg 79%
    10:00 +24°C° 0.2 mm 1 m/s 745 mmHg 76%
    11:00 +25°C° 0.2 mm 2 m/s 745 mmHg 73%
    12:00 +26°C° 0.2 mm 2 m/s 745 mmHg 70%
    13:00 +26°C° 0.7 mm 2 m/s 745 mmHg 70%
    14:00 +26°C° 0.7 mm 3 m/s 745 mmHg 70%
    15:00 +26°C° 0.7 mm 3 m/s 745 mmHg 71%
    16:00 +26°C° 1.1 mm 2 m/s 745 mmHg 73%
    17:00 +26°C° 1.1 mm 2 m/s 745 mmHg 76%
    18:00 +26°C° 1.1 mm 2 m/s 744 mmHg 79%
    19:00 +24°C° 0.3 mm 2 m/s 744 mmHg 81%
    20:00 +23°C° 0.3 mm 1 m/s 745 mmHg 84%
    21:00 +21°C° 0.3 mm 1 m/s 745 mmHg 87%
    22:00 +21°C° 0 mm 1 m/s 745 mmHg 88%
    23:00 +20°C° 0 mm 1 m/s 745 mmHg 89%

    8 Juin, Lundi

    Heure Température Précipitation Vent Pression Humidité
    00:00 +20°C° 0 mm 1 m/s 745 mmHg 91%
    01:00 +19°C° 0 mm 1 m/s 745 mmHg 91%
    02:00 +19°C° 0 mm 1 m/s 745 mmHg 92%
    03:00 +19°C° 0 mm 1 m/s 745 mmHg 93%
    04:00 +19°C° 0 mm 1 m/s 745 mmHg 92%
    05:00 +20°C° 0 mm 1 m/s 745 mmHg 91%
    06:00 +20°C° 0 mm 1 m/s 745 mmHg 91%
    07:00 +22°C° 0.4 mm 1 m/s 745 mmHg 87%
    08:00 +23°C° 0.4 mm 1 m/s 745 mmHg 83%
    09:00 +24°C° 0.4 mm 1 m/s 746 mmHg 79%
    10:00 +25°C° 1.3 mm 2 m/s 746 mmHg 76%
    11:00 +26°C° 1.3 mm 2 m/s 746 mmHg 73%
    12:00 +27°C° 1.3 mm 2 m/s 745 mmHg 70%
    13:00 +27°C° 0.4 mm 2 m/s 745 mmHg 69%
    14:00 +27°C° 0.4 mm 2 m/s 745 mmHg 68%
    15:00 +27°C° 0.4 mm 2 m/s 745 mmHg 66%
    16:00 +27°C° 0 mm 2 m/s 745 mmHg 68%
    17:00 +27°C° 0 mm 1 m/s 744 mmHg 69%
    18:00 +27°C° 0 mm 1 m/s 744 mmHg 70%
    19:00 +25°C° 0 mm 1 m/s 744 mmHg 74%
    20:00 +24°C° 0 mm 1 m/s 744 mmHg 78%
    21:00 +22°C° 0 mm 1 m/s 744 mmHg 83%
    22:00 +22°C° 0 mm 1 m/s 744 mmHg 85%
    23:00 +21°C° 0 mm 1 m/s 744 mmHg 87%

    9 Juin, Mardi

    Heure Température Précipitation Vent Pression Humidité
    00:00 +21°C° 0 mm 1 m/s 745 mmHg 89%
    01:00 +20°C° 0 mm 1 m/s 745 mmHg 89%
    02:00 +20°C° 0 mm 1 m/s 745 mmHg 89%
    03:00 +18°C° 0 mm 0 m/s 745 mmHg 90%
    04:00 +20°C° 0.4 mm 1 m/s 745 mmHg 89%
    05:00 +21°C° 0.4 mm 1 m/s 745 mmHg 89%
    06:00 +21°C° 0.4 mm 1 m/s 745 mmHg 89%
    07:00 +23°C° 0.6 mm 1 m/s 745 mmHg 86%
    08:00 +24°C° 0.6 mm 1 m/s 745 mmHg 82%
    09:00 +25°C° 0.6 mm 1 m/s 745 mmHg 79%
    10:00 +26°C° 1.1 mm 1 m/s 745 mmHg 76%
    11:00 +26°C° 1.1 mm 2 m/s 745 mmHg 74%
    12:00 +27°C° 1.1 mm 2 m/s 745 mmHg 71%
    13:00 +27°C° 0.9 mm 2 m/s 745 mmHg 72%
    14:00 +27°C° 0.9 mm 2 m/s 745 mmHg 73%
    15:00 +27°C° 0.9 mm 2 m/s 745 mmHg 73%
    16:00 +27°C° 0.4 mm 2 m/s 744 mmHg 77%
    17:00 +26°C° 0.4 mm 3 m/s 744 mmHg 81%
    18:00 +26°C° 0.4 mm 3 m/s 744 mmHg 84%
    19:00 +25°C° 0 mm 3 m/s 744 mmHg 87%
    20:00 +22°C° 0 mm 3 m/s 745 mmHg 90%
    21:00 +21°C° 0 mm 3 m/s 745 mmHg 93%
    22:00 +21°C° 0 mm 3 m/s 745 mmHg 93%
    23:00 +20°C° 0 mm 3 m/s 745 mmHg 94%

    10 Juin, Mercredi

    Heure Température Précipitation Vent Pression Humidité
    00:00 +19°C° 0 mm 3 m/s 745 mmHg 94%
    01:00 +19°C° 0 mm 3 m/s 745 mmHg 94%
    02:00 +18°C° 0 mm 3 m/s 745 mmHg 95%
    03:00 +18°C° 0 mm 2 m/s 745 mmHg 95%
    04:00 +18°C° 0 mm 3 m/s 745 mmHg 94%
    05:00 +18°C° 0 mm 3 m/s 745 mmHg 94%
    06:00 +19°C° 0 mm 3 m/s 745 mmHg 94%
    07:00 +20°C° 0 mm 3 m/s 745 mmHg 90%
    08:00 +21°C° 0 mm 3 m/s 746 mmHg 86%
    09:00 +22°C° 0 mm 3 m/s 746 mmHg 82%
    10:00 +23°C° 0 mm 4 m/s 746 mmHg 78%
    11:00 +25°C° 0 mm 4 m/s 746 mmHg 75%
    12:00 +25°C° 0 mm 4 m/s 746 mmHg 71%
    13:00 +25°C° 0 mm 4 m/s 746 mmHg 71%
    14:00 +26°C° 0 mm 4 m/s 746 mmHg 71%
    15:00 +26°C° 0 mm 4 m/s 745 mmHg 71%
    16:00 +26°C° 0 mm 4 m/s 745 mmHg 74%
    17:00 +25°C° 0 mm 3 m/s 745 mmHg 76%
    18:00 +25°C° 0 mm 3 m/s 745 mmHg 79%
    19:00 +24°C° 0 mm 3 m/s 745 mmHg 83%
    20:00 +21°C° 0 mm 2 m/s 745 mmHg 86%
    21:00 +20°C° 0 mm 2 m/s 745 mmHg 90%
    22:00 +19°C° 0 mm 2 m/s 745 mmHg 91%
    23:00 +19°C° 0 mm 2 m/s 745 mmHg 92%
    Voir plus